Location: Newark
(58.9986°N, 38.5006°E)
Time: 23:54:10
(UTC+00:00)

ISS - Visible Passes

Search period start: 05 March 2021 00:00
Search period end: 15 March 2021 00:00
Orbit: 417 x 422 km, 51.6° (Epoch: 05 March)

Date Brightness Start Highest point End Pass type
(mag) Time Alt. Az. Time Alt. Az. Time Alt. Az.
05 Mar -0.8 00:51:09 11° ESE 00:51:09 11° ESE 00:51:23 10° ESE visible
05 Mar -2.2 02:24:06 20° SSW 02:24:54 22° S 02:27:35 10° SE visible
06 Mar -1.9 01:38:27 21° SSE 01:38:27 21° SSE 01:40:20 10° SE visible
06 Mar -1.6 03:11:38 10° WSW 03:13:39 15° SSW 03:15:40 10° SSE visible
07 Mar -0.8 00:52:50 11° SE 00:52:50 11° SE 00:53:01 10° ESE visible
07 Mar -2.0 02:25:47 17° SSW 02:26:22 18° SSW 02:28:43 10° SSE visible
08 Mar -1.7 01:40:13 17° SSE 01:40:13 17° SSE 01:41:38 10° SE visible
09 Mar -1.5 02:27:42 12° SSW 02:27:44 12° SSW 02:29:08 10° S visible
10 Mar -1.2 01:42:17 11° S 01:42:17 11° S 01:42:28 10° SSE visible
